STARLINK L (59932 NORAD) Tracking and Keplerian Element Data

This shows tracking and keplerian element data for the satellite.

Feedback or suggestion? Click here.




ElementValue
Catalog59932
NameSTARLINK L
Epoch Orbit228
Epoch Day160.16667824
Epoch Year2024
RAAN22.4455
Inclination43.0025
Eccentricity0.0002097
Argument of Perigee279.5413
Mean Anonmoly157.5242
Mean Motion15.92723866
Decay Rate-0.00975388
L11 59932U 24106L 24160.16667824 -.00975388 29082-3 -27265-2 0 9994
L22 59932 43.0025 22.4455 0002097 279.5413 157.5242 15.92723866 2282



Live tracking and technical data element details for STARLINK L (NORAD 59932). STARLINK L can be tracked NOW for your location showing map with azimuth and elevation plus other details from your city location.







IsCatalogInMostPopularTable: catalog: 59932, numindb: 12
Update: records affected: 1



GetName: 59932 STARLINK L

Hit Count: updated at: Thu, 25 Jul 2024 01:17:39 GMT